Time,TemperatureF,DewpointF,PressureIn,WindDirection,WindDirectionDegrees,WindSpeedMPH,WindSpeedGustMPH,Humidity,HourlyPrecipIn,Conditions,Clouds,dailyrainin,SoftwareType,DateUTC
2013-03-26 00:00:00,21.7,19.5,30.04,North,349,16.0,20.0,91,0.00,,,0.00,WeatherCatV1.02B3,2013-03-26 04:00:00,
2013-03-26 00:01:00,21.7,19.5,30.06,North,5,20.0,20.0,91,0.00,,,0.00,WeatherCatV1.02B3,2013-03-26 04:01:00,
2013-03-26 00:04:00,21.6,19.6,30.05,NNE,15,4.0,23.0,92,0.00,,,0.00,WeatherCatV1.02B3,2013-03-26 04:04:00,
2013-03-26 00:09:00,21.6,19.6,30.05,North,11,22.0,23.0,92,0.00,,,0.00,WeatherCatV1.02B3,2013-03-26 04:09:00,
2013-03-26 00:14:00,21.6,19.6,30.04,NNW,346,10.0,23.0,92,0.00,,,0.00,WeatherCatV1.02B3,2013-03-26 04:14:00,
2013-03-26 00:19:00,21.6,19.6,30.04,NNW,330,12.0,21.0,92,0.00,,,0.00,WeatherCatV1.02B3,2013-03-26 04:19:00,
2013-03-26 00:25:00,21.5,19.5,30.03,NE,54,16.0,25.0,92,0.00,,,0.00,WeatherCatV1.02B3,2013-03-26 04:25:00,
2013-03-26 00:30:00,21.4,19.4,30.04,North,355,16.0,24.0,92,0.00,,,0.00,WeatherCatV1.02B3,2013-03-26 04:30:00,
2013-03-26 00:35:00,21.4,19.7,30.04,WNW,288,6.0,19.0,93,0.00,,,0.00,WeatherCatV1.02B3,2013-03-26 04:35:00,
2013-03-26 00:41:00,21.3,19.6,30.04,NNW,348,20.0,20.0,93,0.00,,,0.00,WeatherCatV1.02B3,2013-03-26 04:41:00,
2013-03-26 00:46:00,21.2,19.5,30.04,NW,314,14.0,14.0,93,0.00,,,0.00,WeatherCatV1.02B3,2013-03-26 04:46:00,
2013-03-26 00:52:00,21.2,19.7,30.04,ENE,68,12.0,18.0,94,0.00,,,0.00,WeatherCatV1.02B3,2013-03-26 04:52:00,
2013-03-26 00:57:00,21.2,19.7,30.04,NE,46,17.0,20.0,94,0.00,,,0.00,WeatherCatV1.02B3,2013-03-26 04:57:00,
2013-03-26 01:02:00,21.1,19.6,30.04,NNW,330,5.0,24.0,94,0.00,,,0.00,WeatherCatV1.02B3,2013-03-26 05:02:00,
2013-03-26 01:07:00,21.1,19.6,30.05,NE,53,10.0,13.0,94,0.00,,,0.00,WeatherCatV1.02B3,2013-03-26 05:07:00,
2013-03-26 01:12:00,21.1,19.6,30.05,East,93,5.0,34.0,94,0.00,,,0.00,WeatherCatV1.02B3,2013-03-26 05:12:00,
2013-03-26 01:17:00,21.0,19.5,30.06,East,82,7.0,17.0,94,0.00,,,0.00,WeatherCatV1.02B3,2013-03-26 05:17:00,
2013-03-26 01:23:00,20.9,19.5,30.06,North,9,9.0,20.0,94,0.00,,,0.00,WeatherCatV1.02B3,2013-03-26 05:23:00,
2013-03-26 01:28:00,20.9,19.5,30.07,NE,35,8.0,14.0,94,0.00,,,0.00,WeatherCatV1.02B3,2013-03-26 05:28:00,
2013-03-26 01:33:00,20.8,19.1,30.06,NW,321,12.0,14.0,93,0.00,,,0.00,WeatherCatV1.02B3,2013-03-26 05:33:00,
2013-03-26 01:38:00,20.8,19.4,30.05,North,9,12.0,17.0,94,0.00,,,0.00,WeatherCatV1.02B3,2013-03-26 05:38:00,
2013-03-26 01:43:00,20.8,19.1,30.05,North,0,15.0,26.0,93,0.00,,,0.00,WeatherCatV1.02B3,2013-03-26 05:43:00,
2013-03-26 01:48:00,20.8,19.4,30.05,NE,38,18.0,18.0,94,0.00,,,0.00,WeatherCatV1.02B3,2013-03-26 05:48:00,
2013-03-26 01:53:00,20.8,19.4,30.05,NNW,348,18.0,22.0,94,0.00,,,0.00,WeatherCatV1.02B3,2013-03-26 05:53:00,
2013-03-26 01:58:00,20.8,19.4,30.05,North,0,9.0,20.0,94,0.00,,,0.00,WeatherCatV1.02B3,2013-03-26 05:58:00,
2013-03-26 02:03:00,20.8,19.4,30.05,NE,44,12.0,23.0,94,0.00,,,0.00,WeatherCatV1.02B3,2013-03-26 06:03:00,
2013-03-26 02:08:00,20.7,19.3,30.05,North,9,13.0,17.0,94,0.00,,,0.00,WeatherCatV1.02B3,2013-03-26 06:08:00,
2013-03-26 02:13:00,20.7,19.3,30.07,North,0,16.0,16.0,94,0.00,,,0.00,WeatherCatV1.02B3,2013-03-26 06:13:00,
2013-03-26 02:18:00,20.6,19.2,30.08,NNW,329,1.0,23.0,94,0.00,,,0.01,WeatherCatV1.02B3,2013-03-26 06:18:00,
2013-03-26 02:23:00,20.6,19.2,30.07,North,355,13.0,23.0,94,0.00,,,0.01,WeatherCatV1.02B3,2013-03-26 06:23:00,
2013-03-26 02:28:00,20.6,19.2,30.07,NNW,339,11.0,17.0,94,0.00,,,0.01,WeatherCatV1.02B3,2013-03-26 06:28:00,
2013-03-26 02:38:00,20.6,19.2,30.07,NNW,341,14.0,16.0,94,0.00,,,0.01,WeatherCatV1.02B3,2013-03-26 06:38:00,
2013-03-26 02:43:00,20.6,19.2,30.07,NNE,18,12.0,18.0,94,0.00,,,0.01,WeatherCatV1.02B3,2013-03-26 06:43:00,
2013-03-26 02:51:00,20.6,19.2,30.07,North,10,7.0,15.0,94,0.00,,,0.01,WeatherCatV1.02B3,2013-03-26 06:51:00,
2013-03-26 02:56:00,20.7,19.3,30.08,NNE,22,14.0,18.0,94,0.00,,,0.01,WeatherCatV1.02B3,2013-03-26 06:56:00,
2013-03-26 03:01:00,20.7,19.3,30.07,NW,325,10.0,25.0,94,0.00,,,0.01,WeatherCatV1.02B3,2013-03-26 07:01:00,
2013-03-26 03:06:00,20.7,19.3,30.07,NNE,29,2.0,20.0,94,0.00,,,0.01,WeatherCatV1.02B3,2013-03-26 07:06:00,
2013-03-26 03:11:00,20.6,19.2,30.06,NNE,19,17.0,17.0,94,0.00,,,0.01,WeatherCatV1.02B3,2013-03-26 07:11:00,
2013-03-26 03:16:00,20.6,18.9,30.07,NNE,13,10.0,14.0,93,0.00,,,0.01,WeatherCatV1.02B3,2013-03-26 07:16:00,
2013-03-26 03:21:00,20.6,18.9,30.07,North,355,9.0,20.0,93,0.00,,,0.01,WeatherCatV1.02B3,2013-03-26 07:21:00,
2013-03-26 03:30:00,20.6,18.9,30.08,NNE,25,2.0,20.0,93,0.00,,,0.01,WeatherCatV1.02B3,2013-03-26 07:30:00,
2013-03-26 03:39:00,20.6,18.9,30.09,SE,128,4.0,17.0,93,0.00,,,0.01,WeatherCatV1.02B3,2013-03-26 07:39:00,
2013-03-26 03:44:00,20.6,18.9,30.09,NE,35,8.0,18.0,93,0.00,,,0.01,WeatherCatV1.02B3,2013-03-26 07:44:00,
2013-03-26 03:49:00,20.5,18.8,30.09,NNE,15,15.0,15.0,93,0.00,,,0.01,WeatherCatV1.02B3,2013-03-26 07:49:00,
2013-03-26 03:54:00,20.5,18.8,30.09,ENE,57,2.0,12.0,93,0.00,,,0.01,WeatherCatV1.02B3,2013-03-26 07:54:00,
2013-03-26 04:00:00,20.6,18.9,30.09,ENE,75,4.0,9.0,93,0.00,,,0.01,WeatherCatV1.02B3,2013-03-26 08:00:00,
2013-03-26 04:05:00,20.5,18.8,30.09,ENE,59,5.0,20.0,93,0.00,,,0.01,WeatherCatV1.02B3,2013-03-26 08:05:00,
2013-03-26 04:10:00,20.5,19.1,30.08,NNE,24,5.0,21.0,94,0.00,,,0.01,WeatherCatV1.02B3,2013-03-26 08:10:00,
2013-03-26 04:15:00,20.5,19.1,30.08,NNW,328,7.0,13.0,94,0.00,,,0.01,WeatherCatV1.02B3,2013-03-26 08:15:00,
2013-03-26 04:20:00,20.5,19.1,30.09,NW,317,16.0,19.0,94,0.00,,,0.01,WeatherCatV1.02B3,2013-03-26 08:20:00,
2013-03-26 04:25:00,20.5,19.1,30.09,NE,46,9.0,24.0,94,0.00,,,0.01,WeatherCatV1.02B3,2013-03-26 08:25:00,
2013-03-26 04:30:00,20.5,19.1,30.09,North,0,11.0,20.0,94,0.00,,,0.01,WeatherCatV1.02B3,2013-03-26 08:30:00,
2013-03-26 04:35:00,20.5,19.1,30.08,NW,325,10.0,13.0,94,0.00,,,0.01,WeatherCatV1.02B3,2013-03-26 08:35:00,
2013-03-26 04:41:00,20.6,19.2,30.08,NE,53,2.0,13.0,94,0.00,,,0.01,WeatherCatV1.02B3,2013-03-26 08:41:00,
2013-03-26 04:47:00,20.6,19.4,30.09,West,263,2.0,13.0,95,0.00,,,0.01,WeatherCatV1.02B3,2013-03-26 08:47:00,
2013-03-26 04:57:00,20.5,19.1,30.09,North,11,17.0,17.0,94,0.00,,,0.01,WeatherCatV1.02B3,2013-03-26 08:57:00,
2013-03-26 05:06:00,20.5,19.1,30.09,NNE,33,11.0,15.0,94,0.00,,,0.01,WeatherCatV1.02B3,2013-03-26 09:06:00,
2013-03-26 05:11:00,20.5,19.1,30.09,NW,325,6.0,15.0,94,0.00,,,0.01,WeatherCatV1.02B3,2013-03-26 09:11:00,
2013-03-26 05:16:00,20.6,19.4,30.09,NNE,22,9.0,13.0,95,0.00,,,0.01,WeatherCatV1.02B3,2013-03-26 09:16:00,
2013-03-26 05:21:00,20.6,19.2,30.09,NW,305,9.0,14.0,94,0.00,,,0.01,WeatherCatV1.02B3,2013-03-26 09:21:00,
2013-03-26 05:26:00,20.6,19.4,30.09,NNE,26,3.0,13.0,95,0.00,,,0.01,WeatherCatV1.02B3,2013-03-26 09:26:00,
2013-03-26 05:31:00,20.6,19.2,30.09,North,355,9.0,12.0,94,0.00,,,0.01,WeatherCatV1.02B3,2013-03-26 09:31:00,
2013-03-26 05:36:00,20.6,19.4,30.09,NNW,340,7.0,11.0,95,0.00,,,0.01,WeatherCatV1.02B3,2013-03-26 09:36:00,
2013-03-26 05:41:00,20.6,19.2,30.09,NNE,24,3.0,12.0,94,0.00,,,0.01,WeatherCatV1.02B3,2013-03-26 09:41:00,
2013-03-26 05:46:00,20.6,19.2,30.09,North,5,9.0,19.0,94,0.00,,,0.01,WeatherCatV1.02B3,2013-03-26 09:46:00,
2013-03-26 05:51:00,20.6,19.2,30.09,NNW,330,14.0,16.0,94,0.00,,,0.01,WeatherCatV1.02B3,2013-03-26 09:51:00,
2013-03-26 05:56:00,20.6,19.4,30.09,NNW,331,7.0,12.0,95,0.00,,,0.01,WeatherCatV1.02B3,2013-03-26 09:56:00,
2013-03-26 06:02:00,20.6,19.4,30.09,NNW,346,10.0,11.0,95,0.00,,,0.01,WeatherCatV1.02B3,2013-03-26 10:02:00,
2013-03-26 06:07:00,20.6,19.2,30.09,NNW,336,9.0,18.0,94,0.00,,,0.01,WeatherCatV1.02B3,2013-03-26 10:07:00,
2013-03-26 06:12:00,20.5,19.1,30.10,North,0,13.0,19.0,94,0.00,,,0.01,WeatherCatV1.02B3,2013-03-26 10:12:00,
2013-03-26 06:17:00,20.6,19.2,30.09,NNE,25,9.0,16.0,94,0.00,,,0.01,WeatherCatV1.02B3,2013-03-26 10:17:00,
2013-03-26 06:22:00,20.5,19.1,30.09,NNW,346,12.0,21.0,94,0.00,,,0.01,WeatherCatV1.02B3,2013-03-26 10:22:00,
2013-03-26 06:27:00,20.6,19.4,30.10,WNW,299,4.0,18.0,95,0.00,,,0.01,WeatherCatV1.02B3,2013-03-26 10:27:00,
2013-03-26 06:33:00,20.6,19.4,30.09,NNW,330,10.0,14.0,95,0.00,,,0.01,WeatherCatV1.02B3,2013-03-26 10:33:00,
2013-03-26 06:38:00,20.6,19.4,30.09,NNE,13,19.0,19.0,95,0.00,,,0.01,WeatherCatV1.02B3,2013-03-26 10:38:00,
2013-03-26 06:45:00,20.7,19.5,30.10,NNE,33,8.0,15.0,95,0.00,,,0.01,WeatherCatV1.02B3,2013-03-26 10:45:00,
2013-03-26 06:50:00,20.7,19.5,30.10,North,10,6.0,14.0,95,0.00,,,0.01,WeatherCatV1.02B3,2013-03-26 10:50:00,
2013-03-26 06:55:00,20.7,19.5,30.10,NW,309,10.0,11.0,95,0.00,,,0.01,WeatherCatV1.02B3,2013-03-26 10:55:00,
2013-03-26 07:00:00,20.8,19.6,30.10,North,355,10.0,16.0,95,0.00,,,0.01,WeatherCatV1.02B3,2013-03-26 11:00:00,
2013-03-26 07:05:00,20.8,19.6,30.10,North,0,6.0,22.0,95,0.00,,,0.01,WeatherCatV1.02B3,2013-03-26 11:05:00,
2013-03-26 07:10:00,20.8,19.6,30.10,NNW,334,10.0,18.0,95,0.00,,,0.01,WeatherCatV1.02B3,2013-03-26 11:10:00,
2013-03-26 07:15:00,20.7,19.3,30.10,NNW,338,12.0,16.0,94,0.00,,,0.01,WeatherCatV1.02B3,2013-03-26 11:15:00,
2013-03-26 07:20:00,20.7,19.5,30.10,NNW,344,8.0,13.0,95,0.00,,,0.01,WeatherCatV1.02B3,2013-03-26 11:20:00,
2013-03-26 07:25:00,20.7,19.5,30.10,WNW,291,6.0,20.0,95,0.00,,,0.01,WeatherCatV1.02B3,2013-03-26 11:25:00,
2013-03-26 07:30:00,20.7,19.5,30.10,NNW,346,13.0,20.0,95,0.00,,,0.01,WeatherCatV1.02B3,2013-03-26 11:30:00,
2013-03-26 07:35:00,20.7,19.5,30.11,NNW,329,8.0,16.0,95,0.00,,,0.01,WeatherCatV1.02B3,2013-03-26 11:35:00,
2013-03-26 07:40:00,20.7,19.5,30.11,NE,49,3.0,17.0,95,0.00,,,0.01,WeatherCatV1.02B3,2013-03-26 11:40:00,
2013-03-26 07:45:00,20.7,19.5,30.11,ENE,63,4.0,17.0,95,0.00,,,0.01,WeatherCatV1.02B3,2013-03-26 11:45:00,
2013-03-26 07:50:00,20.7,19.5,30.11,NNW,344,6.0,15.0,95,0.00,,,0.01,WeatherCatV1.02B3,2013-03-26 11:50:00,
2013-03-26 07:55:00,20.8,19.6,30.12,ENE,59,5.0,16.0,95,0.00,,,0.01,WeatherCatV1.02B3,2013-03-26 11:55:00,
2013-03-26 08:00:00,20.8,19.4,30.12,North,351,4.0,16.0,94,0.00,,,0.01,WeatherCatV1.02B3,2013-03-26 12:00:00,
2013-03-26 08:05:00,20.9,19.5,30.12,NE,49,4.0,9.0,94,0.00,,,0.01,WeatherCatV1.02B3,2013-03-26 12:05:00,
2013-03-26 08:10:00,21.0,19.8,30.12,North,355,12.0,12.0,95,0.00,,,0.01,WeatherCatV1.02B3,2013-03-26 12:10:00,
2013-03-26 08:15:00,21.1,19.9,30.12,North,355,10.0,15.0,95,0.00,,,0.01,WeatherCatV1.02B3,2013-03-26 12:15:00,
2013-03-26 08:20:00,21.2,20.0,30.12,ENE,59,5.0,13.0,95,0.00,,,0.01,WeatherCatV1.02B3,2013-03-26 12:20:00,
2013-03-26 08:25:00,21.2,20.0,30.12,NNW,343,2.0,11.0,95,0.00,,,0.01,WeatherCatV1.02B3,2013-03-26 12:25:00,
2013-03-26 08:30:00,21.3,20.1,30.12,ESE,105,2.0,15.0,95,0.00,,,0.01,WeatherCatV1.02B3,2013-03-26 12:30:00,
2013-03-26 08:35:00,21.3,20.1,30.13,ENE,57,9.0,21.0,95,0.00,,,0.01,WeatherCatV1.02B3,2013-03-26 12:35:00,
2013-03-26 08:40:00,21.4,20.2,30.13,NE,48,4.0,24.0,95,0.00,,,0.01,WeatherCatV1.02B3,2013-03-26 12:40:00,
2013-03-26 08:45:00,21.5,20.3,30.13,NNW,348,10.0,17.0,95,0.00,,,0.01,WeatherCatV1.02B3,2013-03-26 12:45:00,
2013-03-26 08:50:00,21.6,20.4,30.14,NW,324,11.0,15.0,95,0.00,,,0.01,WeatherCatV1.02B3,2013-03-26 12:50:00,
2013-03-26 08:55:00,21.6,20.4,30.14,NE,34,5.0,11.0,95,0.00,,,0.01,WeatherCatV1.02B3,2013-03-26 12:55:00,
2013-03-26 09:00:00,21.8,20.6,30.14,North,9,5.0,9.0,95,0.00,,,0.01,WeatherCatV1.02B3,2013-03-26 13:00:00,
2013-03-26 09:05:00,21.8,20.6,30.14,NW,317,5.0,18.0,95,0.00,,,0.01,WeatherCatV1.02B3,2013-03-26 13:05:00,
2013-03-26 09:10:00,21.9,20.7,30.15,North,0,4.0,12.0,95,0.00,,,0.01,WeatherCatV1.02B3,2013-03-26 13:10:00,
2013-03-26 09:15:00,22.1,20.9,30.15,NW,326,4.0,11.0,95,0.00,,,0.01,WeatherCatV1.02B3,2013-03-26 13:15:00,
2013-03-26 09:20:00,22.2,20.7,30.16,NW,326,7.0,21.0,94,0.00,,,0.01,WeatherCatV1.02B3,2013-03-26 13:20:00,
2013-03-26 09:25:00,22.3,21.1,30.16,NW,325,9.0,13.0,95,0.00,,,0.01,WeatherCatV1.02B3,2013-03-26 13:25:00,
2013-03-26 09:30:00,22.4,20.9,30.16,NNW,342,5.0,13.0,94,0.00,,,0.01,WeatherCatV1.02B3,2013-03-26 13:30:00,
2013-03-26 09:35:00,22.5,21.0,30.17,NW,325,5.0,7.0,94,0.00,,,0.01,WeatherCatV1.02B3,2013-03-26 13:35:00,
2013-03-26 09:40:00,22.6,21.1,30.17,North,355,4.0,16.0,94,0.00,,,0.01,WeatherCatV1.02B3,2013-03-26 13:40:00,
2013-03-26 09:45:00,22.8,21.3,30.17,NNW,336,6.0,12.0,94,0.00,,,0.01,WeatherCatV1.02B3,2013-03-26 13:45:00,
2013-03-26 09:50:00,22.9,21.4,30.17,North,355,15.0,17.0,94,0.00,,,0.01,WeatherCatV1.02B3,2013-03-26 13:50:00,
2013-03-26 09:55:00,22.9,21.4,30.18,North,0,9.0,11.0,94,0.00,,,0.01,WeatherCatV1.02B3,2013-03-26 13:55:00,
2013-03-26 10:00:00,23.1,21.6,30.18,NNW,342,7.0,13.0,94,0.00,,,0.01,WeatherCatV1.02B3,2013-03-26 14:00:00,
2013-03-26 10:05:00,23.3,21.8,30.18,NNW,338,5.0,13.0,94,0.00,,,0.01,WeatherCatV1.02B3,2013-03-26 14:05:00,
2013-03-26 10:10:00,23.4,21.9,30.18,North,5,10.0,17.0,94,0.00,,,0.01,WeatherCatV1.02B3,2013-03-26 14:10:00,
2013-03-26 10:15:00,23.3,21.6,30.19,NNW,347,8.0,13.0,93,0.00,,,0.01,WeatherCatV1.02B3,2013-03-26 14:15:00,
2013-03-26 10:20:00,23.4,21.7,30.19,NNE,25,6.0,12.0,93,0.00,,,0.01,WeatherCatV1.02B3,2013-03-26 14:20:00,
2013-03-26 10:25:00,23.6,21.9,30.19,NNE,15,13.0,15.0,93,0.00,,,0.01,WeatherCatV1.02B3,2013-03-26 14:25:00,
2013-03-26 10:30:00,23.8,22.3,30.20,NE,38,4.0,19.0,94,0.00,,,0.01,WeatherCatV1.02B3,2013-03-26 14:30:00,
2013-03-26 10:35:00,23.9,22.2,30.20,NE,42,3.0,12.0,93,0.00,,,0.01,WeatherCatV1.02B3,2013-03-26 14:35:00,
2013-03-26 10:40:00,24.1,22.4,30.20,NNW,332,5.0,15.0,93,0.00,,,0.01,WeatherCatV1.02B3,2013-03-26 14:40:00,
2013-03-26 10:45:00,24.3,22.6,30.20,NNW,338,10.0,11.0,93,0.00,,,0.01,WeatherCatV1.02B3,2013-03-26 14:45:00,
2013-03-26 10:50:00,24.1,22.1,30.21,NNW,346,3.0,11.0,92,0.00,,,0.01,WeatherCatV1.02B3,2013-03-26 14:50:00,
2013-03-26 10:55:00,23.9,21.9,30.21,NW,315,4.0,11.0,92,0.00,,,0.01,WeatherCatV1.02B3,2013-03-26 14:55:00,
2013-03-26 11:00:00,23.9,21.9,30.21,NNW,342,6.0,6.0,92,0.00,,,0.01,WeatherCatV1.02B3,2013-03-26 15:00:00,
2013-03-26 11:05:00,23.9,22.2,30.22,North,5,9.0,18.0,93,0.00,,,0.01,WeatherCatV1.02B3,2013-03-26 15:05:00,
2013-03-26 11:10:00,24.0,22.3,30.21,NW,325,5.0,15.0,93,0.00,,,0.01,WeatherCatV1.02B3,2013-03-26 15:10:00,
2013-03-26 11:15:00,24.3,22.3,30.22,NW,317,13.0,13.0,92,0.00,,,0.01,WeatherCatV1.02B3,2013-03-26 15:15:00,
2013-03-26 11:20:00,24.5,22.8,30.22,NNW,344,1.0,14.0,93,0.00,,,0.01,WeatherCatV1.02B3,2013-03-26 15:20:00,
2013-03-26 11:25:00,24.5,22.5,30.22,North,355,3.0,15.0,92,0.00,,,0.01,WeatherCatV1.02B3,2013-03-26 15:25:00,
2013-03-26 11:30:00,24.8,23.1,30.22,NNW,338,11.0,13.0,93,0.00,,,0.01,WeatherCatV1.02B3,2013-03-26 15:30:00,
2013-03-26 11:35:00,24.9,22.9,30.23,NNW,336,5.0,16.0,92,0.00,,,0.01,WeatherCatV1.02B3,2013-03-26 15:35:00,
2013-03-26 11:40:00,24.8,22.8,30.23,ENE,59,7.0,14.0,92,0.00,,,0.01,WeatherCatV1.02B3,2013-03-26 15:40:00,
2013-03-26 11:45:00,24.7,22.7,30.23,NNW,328,7.0,15.0,92,0.00,,,0.01,WeatherCatV1.02B3,2013-03-26 15:45:00,
2013-03-26 11:50:00,24.7,22.7,30.24,NW,310,7.0,13.0,92,0.00,,,0.01,WeatherCatV1.02B3,2013-03-26 15:50:00,
2013-03-26 11:55:00,24.6,22.6,30.24,NW,318,4.0,10.0,92,0.00,,,0.01,WeatherCatV1.02B3,2013-03-26 15:55:00,
2013-03-26 12:00:00,24.7,22.7,30.23,NNW,343,6.0,13.0,92,0.00,,,0.01,WeatherCatV1.02B3,2013-03-26 16:00:00,
2013-03-26 12:05:00,24.8,22.8,30.24,NNW,331,9.0,15.0,92,0.00,,,0.01,WeatherCatV1.02B3,2013-03-26 16:05:00,
2013-03-26 12:10:00,24.8,22.8,30.24,NNW,340,10.0,11.0,92,0.00,,,0.01,WeatherCatV1.02B3,2013-03-26 16:10:00,
2013-03-26 12:15:00,24.9,22.9,30.25,NNW,346,12.0,12.0,92,0.00,,,0.01,WeatherCatV1.02B3,2013-03-26 16:15:00,
2013-03-26 12:20:00,25.2,23.2,30.25,NW,311,7.0,8.0,92,0.00,,,0.01,WeatherCatV1.02B3,2013-03-26 16:20:00,
2013-03-26 12:25:00,25.4,23.4,30.24,NNW,342,4.0,12.0,92,0.00,,,0.01,WeatherCatV1.02B3,2013-03-26 16:25:00,
2013-03-26 12:30:00,25.7,23.7,30.25,NNW,335,4.0,10.0,92,0.00,,,0.01,WeatherCatV1.02B3,2013-03-26 16:30:00,
2013-03-26 12:35:00,25.9,23.6,30.25,NNE,24,3.0,13.0,91,0.00,,,0.01,WeatherCatV1.02B3,2013-03-26 16:35:00,
2013-03-26 12:40:00,25.9,23.6,30.25,NNE,30,6.0,14.0,91,0.00,,,0.01,WeatherCatV1.02B3,2013-03-26 16:40:00,
2013-03-26 12:45:00,26.0,23.7,30.25,NNE,32,5.0,13.0,91,0.00,,,0.01,WeatherCatV1.02B3,2013-03-26 16:45:00,
2013-03-26 12:50:00,26.5,24.2,30.25,North,0,6.0,12.0,91,0.00,,,0.01,WeatherCatV1.02B3,2013-03-26 16:50:00,
2013-03-26 12:55:00,26.7,24.2,30.25,NNW,336,9.0,12.0,90,0.00,,,0.01,WeatherCatV1.02B3,2013-03-26 16:55:00,
2013-03-26 13:01:00,26.5,23.7,30.24,NNW,340,5.0,12.0,89,0.00,,,0.01,WeatherCatV1.02B3,2013-03-26 17:01:00,
2013-03-26 13:06:00,26.5,23.4,30.25,NNW,340,6.0,17.0,88,0.00,,,0.02,WeatherCatV1.02B3,2013-03-26 17:06:00,
2013-03-26 13:11:00,26.6,23.8,30.25,NNW,337,5.0,12.0,89,0.00,,,0.02,WeatherCatV1.02B3,2013-03-26 17:11:00,
2013-03-26 13:16:00,26.9,24.1,30.25,NNW,348,4.0,10.0,89,0.06,,,0.02,WeatherCatV1.02B3,2013-03-26 17:16:00,
2013-03-26 13:21:00,27.1,24.0,30.25,NW,315,6.0,11.0,88,0.06,,,0.03,WeatherCatV1.02B3,2013-03-26 17:21:00,
2013-03-26 13:26:00,27.4,24.3,30.25,NNE,33,4.0,13.0,88,0.06,,,0.03,WeatherCatV1.02B3,2013-03-26 17:26:00,
2013-03-26 13:31:00,27.4,24.6,30.25,NNE,14,7.0,9.0,89,0.04,,,0.03,WeatherCatV1.02B3,2013-03-26 17:31:00,
2013-03-26 13:36:00,27.2,24.4,30.25,NNW,334,5.0,17.0,89,0.00,,,0.03,WeatherCatV1.02B3,2013-03-26 17:36:00,
2013-03-26 13:41:00,26.7,23.9,30.25,NNW,339,4.0,15.0,89,0.00,,,0.03,WeatherCatV1.02B3,2013-03-26 17:41:00,
2013-03-26 13:46:00,26.3,23.5,30.26,NNE,25,3.0,13.0,89,0.00,,,0.03,WeatherCatV1.02B3,2013-03-26 17:46:00,
2013-03-26 13:51:00,26.2,23.7,30.25,ENE,74,5.0,11.0,90,0.00,,,0.03,WeatherCatV1.02B3,2013-03-26 17:51:00,
2013-03-26 13:56:00,26.2,23.4,30.26,NW,315,9.0,12.0,89,0.00,,,0.03,WeatherCatV1.02B3,2013-03-26 17:56:00,
2013-03-26 14:01:00,26.2,23.7,30.25,North,0,5.0,10.0,90,0.00,,,0.03,WeatherCatV1.02B3,2013-03-26 18:01:00,
2013-03-26 14:06:00,26.7,24.2,30.26,NW,315,6.0,9.0,90,0.00,,,0.04,WeatherCatV1.02B3,2013-03-26 18:06:00,
2013-03-26 14:11:00,26.8,24.0,30.26,North,0,4.0,7.0,89,0.00,,,0.04,WeatherCatV1.02B3,2013-03-26 18:11:00,
2013-03-26 14:16:00,26.8,24.3,30.26,NW,321,3.0,7.0,90,0.00,,,0.04,WeatherCatV1.02B3,2013-03-26 18:16:00,
2013-03-26 14:21:00,26.9,24.4,30.26,West,277,5.0,9.0,90,0.00,,,0.04,WeatherCatV1.02B3,2013-03-26 18:21:00,
2013-03-26 14:26:00,26.8,24.3,30.26,NNE,17,3.0,10.0,90,0.00,,,0.04,WeatherCatV1.02B3,2013-03-26 18:26:00,
2013-03-26 14:31:00,26.6,24.3,30.26,North,10,10.0,10.0,91,0.00,,,0.04,WeatherCatV1.02B3,2013-03-26 18:31:00,
2013-03-26 14:36:00,27.3,25.3,30.25,East,82,7.0,9.0,92,0.00,,,0.04,WeatherCatV1.02B3,2013-03-26 18:36:00,
2013-03-26 14:41:00,28.3,26.0,30.25,NE,46,7.0,13.0,91,0.00,,,0.04,WeatherCatV1.02B3,2013-03-26 18:41:00,
2013-03-26 14:46:00,28.6,25.5,30.25,North,0,3.0,14.0,88,0.00,,,0.05,WeatherCatV1.02B3,2013-03-26 18:46:00,
2013-03-26 14:51:00,27.9,24.8,30.25,NE,53,3.0,5.0,88,0.00,,,0.05,WeatherCatV1.02B3,2013-03-26 18:51:00,
2013-03-26 14:56:00,27.1,24.6,30.26,North,0,7.0,10.0,90,0.00,,,0.05,WeatherCatV1.02B3,2013-03-26 18:56:00,
2013-03-26 15:01:00,26.6,24.3,30.26,NNW,346,15.0,16.0,91,0.00,,,0.05,WeatherCatV1.02B3,2013-03-26 19:01:00,
2013-03-26 15:06:00,26.2,24.2,30.26,NNW,331,8.0,12.0,92,0.00,,,0.05,WeatherCatV1.02B3,2013-03-26 19:06:00,
2013-03-26 15:11:00,26.4,24.7,30.26,North,0,6.0,16.0,93,0.00,,,0.05,WeatherCatV1.02B3,2013-03-26 19:11:00,
2013-03-26 15:16:00,26.5,24.5,30.26,NW,310,7.0,11.0,92,0.00,,,0.05,WeatherCatV1.02B3,2013-03-26 19:16:00,
2013-03-26 15:21:00,26.4,24.4,30.26,NNW,331,9.0,15.0,92,0.00,,,0.05,WeatherCatV1.02B3,2013-03-26 19:21:00,
2013-03-26 15:26:00,26.2,23.9,30.26,ENE,63,15.0,16.0,91,0.00,,,0.05,WeatherCatV1.02B3,2013-03-26 19:26:00,
2013-03-26 15:31:00,26.1,23.6,30.26,NE,46,9.0,21.0,90,0.00,,,0.05,WeatherCatV1.02B3,2013-03-26 19:31:00,
2013-03-26 15:36:00,26.3,23.8,30.26,NE,51,12.0,16.0,90,0.00,,,0.05,WeatherCatV1.02B3,2013-03-26 19:36:00,
2013-03-26 15:41:00,26.5,24.0,30.27,NW,323,9.0,12.0,90,0.00,,,0.05,WeatherCatV1.02B3,2013-03-26 19:41:00,
2013-03-26 15:46:00,26.9,24.4,30.27,NNW,346,14.0,14.0,90,0.00,,,0.05,WeatherCatV1.02B3,2013-03-26 19:46:00,
2013-03-26 15:51:00,27.0,24.5,30.27,NNW,329,9.0,10.0,90,0.00,,,0.06,WeatherCatV1.02B3,2013-03-26 19:51:00,
2013-03-26 15:56:00,26.7,23.9,30.26,ENE,75,4.0,11.0,89,0.00,,,0.06,WeatherCatV1.02B3,2013-03-26 19:56:00,
2013-03-26 16:01:00,26.2,23.7,30.27,NNE,18,11.0,15.0,90,0.00,,,0.06,WeatherCatV1.02B3,2013-03-26 20:01:00,
2013-03-26 16:06:00,25.9,23.6,30.27,NNW,336,8.0,17.0,91,0.00,,,0.06,WeatherCatV1.02B3,2013-03-26 20:06:00,
2013-03-26 16:11:00,25.6,23.6,30.27,ENE,63,8.0,15.0,92,0.00,,,0.06,WeatherCatV1.02B3,2013-03-26 20:11:00,
2013-03-26 16:16:00,25.4,23.7,30.27,North,11,21.0,21.0,93,0.00,,,0.06,WeatherCatV1.02B3,2013-03-26 20:16:00,
2013-03-26 16:21:00,25.5,24.0,30.27,NE,35,17.0,17.0,94,0.00,,,0.06,WeatherCatV1.02B3,2013-03-26 20:21:00,
2013-03-26 16:26:00,25.7,24.0,30.27,NE,55,11.0,15.0,93,0.00,,,0.06,WeatherCatV1.02B3,2013-03-26 20:26:00,
2013-03-26 16:31:00,25.6,23.6,30.27,NNW,346,5.0,17.0,92,0.00,,,0.06,WeatherCatV1.02B3,2013-03-26 20:31:00,
2013-03-26 16:36:00,25.6,23.6,30.27,NE,48,5.0,10.0,92,0.00,,,0.06,WeatherCatV1.02B3,2013-03-26 20:36:00,
2013-03-26 16:41:00,25.5,23.5,30.27,NNW,344,10.0,11.0,92,0.00,,,0.06,WeatherCatV1.02B3,2013-03-26 20:41:00,
2013-03-26 16:46:00,25.2,23.2,30.27,NE,42,9.0,17.0,92,0.00,,,0.06,WeatherCatV1.02B3,2013-03-26 20:46:00,
2013-03-26 16:51:00,25.1,23.1,30.28,North,11,11.0,16.0,92,0.00,,,0.06,WeatherCatV1.02B3,2013-03-26 20:51:00,
2013-03-26 16:56:00,25.1,23.1,30.27,North,355,4.0,18.0,92,0.00,,,0.06,WeatherCatV1.02B3,2013-03-26 20:56:00,
2013-03-26 17:01:00,25.2,23.2,30.27,NE,36,7.0,16.0,92,0.00,,,0.06,WeatherCatV1.02B3,2013-03-26 21:01:00,
2013-03-26 17:06:00,25.1,23.1,30.28,NW,315,11.0,12.0,92,0.00,,,0.06,WeatherCatV1.02B3,2013-03-26 21:06:00,
2013-03-26 17:11:00,25.1,22.9,30.27,NNE,15,17.0,20.0,91,0.00,,,0.06,WeatherCatV1.02B3,2013-03-26 21:11:00,
2013-03-26 17:16:00,25.1,23.1,30.28,NW,311,6.0,11.0,92,0.00,,,0.06,WeatherCatV1.02B3,2013-03-26 21:16:00,
2013-03-26 17:21:00,25.0,23.0,30.28,WNW,296,5.0,17.0,92,0.00,,,0.06,WeatherCatV1.02B3,2013-03-26 21:21:00,
2013-03-26 17:26:00,24.8,22.8,30.28,North,355,6.0,12.0,92,0.00,,,0.06,WeatherCatV1.02B3,2013-03-26 21:26:00,
2013-03-26 17:31:00,24.7,22.7,30.27,North,0,5.0,14.0,92,0.00,,,0.06,WeatherCatV1.02B3,2013-03-26 21:31:00,
2013-03-26 17:36:00,24.7,22.7,30.27,East,83,3.0,16.0,92,0.00,,,0.06,WeatherCatV1.02B3,2013-03-26 21:36:00,
2013-03-26 17:41:00,24.7,22.7,30.28,NE,49,14.0,18.0,92,0.00,,,0.06,WeatherCatV1.02B3,2013-03-26 21:41:00,
2013-03-26 17:46:00,24.7,22.7,30.28,North,355,6.0,14.0,92,0.00,,,0.06,WeatherCatV1.02B3,2013-03-26 21:46:00,
2013-03-26 17:51:00,24.8,22.6,30.28,NNW,342,6.0,22.0,91,0.00,,,0.06,WeatherCatV1.02B3,2013-03-26 21:51:00,
2013-03-26 17:56:00,24.8,22.3,30.28,NE,43,3.0,12.0,90,0.00,,,0.06,WeatherCatV1.02B3,2013-03-26 21:56:00,
2013-03-26 18:01:00,24.9,22.4,30.28,NE,51,10.0,19.0,90,0.00,,,0.06,WeatherCatV1.02B3,2013-03-26 22:01:00,
2013-03-26 18:06:00,25.0,22.5,30.28,NNW,344,11.0,15.0,90,0.00,,,0.06,WeatherCatV1.02B3,2013-03-26 22:06:00,
2013-03-26 18:11:00,25.0,22.2,30.28,ENE,59,7.0,14.0,89,0.00,,,0.06,WeatherCatV1.02B3,2013-03-26 22:11:00,
2013-03-26 18:16:00,25.0,22.2,30.29,ESE,104,4.0,17.0,89,0.00,,,0.06,WeatherCatV1.02B3,2013-03-26 22:16:00,
2013-03-26 18:21:00,25.0,22.2,30.29,NNW,348,10.0,19.0,89,0.00,,,0.06,WeatherCatV1.02B3,2013-03-26 22:21:00,
2013-03-26 18:26:00,24.9,22.1,30.29,NNE,16,7.0,16.0,89,0.00,,,0.06,WeatherCatV1.02B3,2013-03-26 22:26:00,
2013-03-26 18:31:00,24.9,22.1,30.29,ENE,58,2.0,13.0,89,0.00,,,0.06,WeatherCatV1.02B3,2013-03-26 22:31:00,
2013-03-26 18:36:00,24.8,22.3,30.29,NNW,330,6.0,16.0,90,0.00,,,0.06,WeatherCatV1.02B3,2013-03-26 22:36:00,
2013-03-26 18:41:00,24.7,22.2,30.30,NNE,19,11.0,19.0,90,0.00,,,0.06,WeatherCatV1.02B3,2013-03-26 22:41:00,
2013-03-26 18:46:00,24.6,22.4,30.30,NNW,346,14.0,18.0,91,0.00,,,0.06,WeatherCatV1.02B3,2013-03-26 22:46:00,
2013-03-26 18:51:00,24.5,22.0,30.30,North,9,9.0,18.0,90,0.00,,,0.06,WeatherCatV1.02B3,2013-03-26 22:51:00,
2013-03-26 18:56:00,24.5,22.0,30.31,North,11,6.0,20.0,90,0.00,,,0.06,WeatherCatV1.02B3,2013-03-26 22:56:00,
2013-03-26 19:01:00,24.4,21.6,30.30,North,9,5.0,20.0,89,0.00,,,0.06,WeatherCatV1.02B3,2013-03-26 23:01:00,
2013-03-26 19:06:00,24.5,21.5,30.31,NNW,341,10.0,15.0,88,0.00,,,0.06,WeatherCatV1.02B3,2013-03-26 23:06:00,
2013-03-26 19:11:00,24.5,21.2,30.30,NW,318,10.0,29.0,87,0.00,,,0.06,WeatherCatV1.02B3,2013-03-26 23:11:00,
2013-03-26 19:16:00,24.5,21.2,30.30,NNE,28,13.0,23.0,87,0.00,,,0.06,WeatherCatV1.02B3,2013-03-26 23:16:00,
2013-03-26 19:21:00,24.5,21.2,30.31,NNE,19,10.0,18.0,87,0.00,,,0.06,WeatherCatV1.02B3,2013-03-26 23:21:00,
2013-03-26 19:26:00,24.5,21.2,30.31,NE,51,6.0,22.0,87,0.00,,,0.06,WeatherCatV1.02B3,2013-03-26 23:26:00,
2013-03-26 19:31:00,24.4,21.4,30.32,North,350,7.0,17.0,88,0.00,,,0.06,WeatherCatV1.02B3,2013-03-26 23:31:00,
2013-03-26 19:36:00,24.3,21.3,30.31,NNE,19,5.0,22.0,88,0.00,,,0.06,WeatherCatV1.02B3,2013-03-26 23:36:00,
2013-03-26 19:41:00,24.3,21.3,30.32,NNE,17,10.0,20.0,88,0.00,,,0.06,WeatherCatV1.02B3,2013-03-26 23:41:00,
2013-03-26 19:46:00,24.1,21.1,30.31,NNW,331,5.0,14.0,88,0.00,,,0.06,WeatherCatV1.02B3,2013-03-26 23:46:00,
2013-03-26 19:51:00,24.0,21.2,30.31,NNE,28,3.0,23.0,89,0.00,,,0.06,WeatherCatV1.02B3,2013-03-26 23:51:00,
2013-03-26 19:56:00,23.9,21.1,30.32,NNE,16,0.0,23.0,89,0.00,,,0.06,WeatherCatV1.02B3,2013-03-26 23:56:00,
2013-03-26 20:01:00,23.8,21.0,30.32,North,5,7.0,14.0,89,0.00,,,0.06,WeatherCatV1.02B3,2013-03-27 00:01:00,
2013-03-26 20:06:00,23.8,20.8,30.32,NNE,31,6.0,13.0,88,0.00,,,0.06,WeatherCatV1.02B3,2013-03-27 00:06:00,
2013-03-26 20:11:00,23.7,20.7,30.32,NNE,19,4.0,17.0,88,0.00,,,0.06,WeatherCatV1.02B3,2013-03-27 00:11:00,
2013-03-26 20:17:00,23.7,20.7,30.32,NNW,342,10.0,21.0,88,0.00,,,0.06,WeatherCatV1.02B3,2013-03-27 00:17:00,
2013-03-26 20:22:00,23.7,20.7,30.33,NE,47,5.0,16.0,88,0.00,,,0.06,WeatherCatV1.02B3,2013-03-27 00:22:00,
2013-03-26 20:27:00,23.8,21.0,30.33,North,11,6.0,13.0,89,0.00,,,0.06,WeatherCatV1.02B3,2013-03-27 00:27:00,
2013-03-26 20:32:00,23.9,21.1,30.33,NW,322,12.0,14.0,89,0.00,,,0.06,WeatherCatV1.02B3,2013-03-27 00:32:00,
2013-03-26 20:37:00,23.9,21.1,30.33,NE,36,4.0,18.0,89,0.00,,,0.06,WeatherCatV1.02B3,2013-03-27 00:37:00,
2013-03-26 20:42:00,23.9,21.4,30.33,NNW,338,13.0,15.0,90,0.00,,,0.06,WeatherCatV1.02B3,2013-03-27 00:42:00,
2013-03-26 20:47:00,23.9,21.4,30.33,North,9,4.0,18.0,90,0.00,,,0.06,WeatherCatV1.02B3,2013-03-27 00:47:00,
2013-03-26 20:52:00,23.9,21.4,30.33,NE,40,9.0,16.0,90,0.00,,,0.06,WeatherCatV1.02B3,2013-03-27 00:52:00,
2013-03-26 20:57:00,23.9,21.4,30.33,NE,46,11.0,15.0,90,0.00,,,0.06,WeatherCatV1.02B3,2013-03-27 00:57:00,
2013-03-26 21:02:00,24.0,21.5,30.33,NE,55,12.0,17.0,90,0.00,,,0.06,WeatherCatV1.02B3,2013-03-27 01:02:00,
2013-03-26 21:07:00,24.1,21.3,30.34,North,349,15.0,15.0,89,0.00,,,0.06,WeatherCatV1.02B3,2013-03-27 01:07:00,
2013-03-26 21:12:00,24.0,21.5,30.34,NNE,31,5.0,16.0,90,0.00,,,0.06,WeatherCatV1.02B3,2013-03-27 01:12:00,
2013-03-26 21:17:00,24.0,21.5,30.34,NNE,17,11.0,25.0,90,0.00,,,0.06,WeatherCatV1.02B3,2013-03-27 01:17:00,
2013-03-26 21:22:00,23.9,21.4,30.35,NNW,338,18.0,30.0,90,0.00,,,0.06,WeatherCatV1.02B3,2013-03-27 01:22:00,
2013-03-26 21:27:00,23.9,21.4,30.35,North,355,17.0,23.0,90,0.00,,,0.06,WeatherCatV1.02B3,2013-03-27 01:27:00,
2013-03-26 21:32:00,23.8,21.3,30.35,ENE,71,13.0,19.0,90,0.00,,,0.06,WeatherCatV1.02B3,2013-03-27 01:32:00,
2013-03-26 21:37:00,23.8,21.3,30.35,North,0,11.0,13.0,90,0.00,,,0.06,WeatherCatV1.02B3,2013-03-27 01:37:00,
2013-03-26 21:42:00,23.8,21.3,30.35,NE,37,17.0,18.0,90,0.00,,,0.06,WeatherCatV1.02B3,2013-03-27 01:42:00,
2013-03-26 21:47:00,23.9,21.4,30.35,NE,54,6.0,14.0,90,0.00,,,0.06,WeatherCatV1.02B3,2013-03-27 01:47:00,
2013-03-26 21:52:00,23.9,21.1,30.36,NNW,334,10.0,27.0,89,0.00,,,0.06,WeatherCatV1.02B3,2013-03-27 01:52:00,
2013-03-26 21:57:00,23.9,21.4,30.35,East,87,10.0,11.0,90,0.00,,,0.06,WeatherCatV1.02B3,2013-03-27 01:57:00,
2013-03-26 22:02:00,23.9,21.4,30.36,North,0,7.0,16.0,90,0.00,,,0.06,WeatherCatV1.02B3,2013-03-27 02:02:00,
2013-03-26 22:07:00,23.8,21.3,30.35,NW,323,5.0,16.0,90,0.00,,,0.06,WeatherCatV1.02B3,2013-03-27 02:07:00,
2013-03-26 22:12:00,23.7,20.9,30.36,NNW,344,9.0,23.0,89,0.00,,,0.06,WeatherCatV1.02B3,2013-03-27 02:12:00,
2013-03-26 22:17:00,23.6,20.8,30.35,NNE,22,9.0,15.0,89,0.00,,,0.06,WeatherCatV1.02B3,2013-03-27 02:17:00,
2013-03-26 22:22:00,23.5,21.0,30.36,North,355,5.0,16.0,90,0.00,,,0.06,WeatherCatV1.02B3,2013-03-27 02:22:00,
2013-03-26 22:27:00,23.5,21.0,30.36,North,355,7.0,16.0,90,0.00,,,0.06,WeatherCatV1.02B3,2013-03-27 02:27:00,
2013-03-26 22:32:00,23.5,21.0,30.36,NE,46,7.0,22.0,90,0.00,,,0.06,WeatherCatV1.02B3,2013-03-27 02:32:00,
2013-03-26 22:37:00,23.5,20.7,30.36,NE,37,8.0,13.0,89,0.00,,,0.06,WeatherCatV1.02B3,2013-03-27 02:37:00,
2013-03-26 22:42:00,23.6,20.8,30.36,NNW,337,11.0,11.0,89,0.00,,,0.06,WeatherCatV1.02B3,2013-03-27 02:42:00,
2013-03-26 22:47:00,23.6,20.3,30.37,North,355,10.0,16.0,87,0.00,,,0.06,WeatherCatV1.02B3,2013-03-27 02:47:00,
2013-03-26 22:52:00,23.7,20.7,30.37,North,0,20.0,20.0,88,0.00,,,0.06,WeatherCatV1.02B3,2013-03-27 02:52:00,
2013-03-26 22:57:00,23.7,20.7,30.37,NE,41,24.0,26.0,88,0.00,,,0.06,WeatherCatV1.02B3,2013-03-27 02:57:00,
2013-03-26 23:02:00,23.6,20.6,30.37,NNE,32,18.0,20.0,88,0.00,,,0.06,WeatherCatV1.02B3,2013-03-27 03:02:00,
2013-03-26 23:07:00,23.5,20.5,30.37,North,0,11.0,16.0,88,0.00,,,0.06,WeatherCatV1.02B3,2013-03-27 03:07:00,
2013-03-26 23:12:00,23.5,20.5,30.37,NNW,342,16.0,18.0,88,0.00,,,0.06,WeatherCatV1.02B3,2013-03-27 03:12:00,
2013-03-26 23:17:00,23.4,20.4,30.37,NNW,335,10.0,21.0,88,0.00,,,0.06,WeatherCatV1.02B3,2013-03-27 03:17:00,
2013-03-26 23:22:00,23.4,20.1,30.37,ENE,57,6.0,20.0,87,0.00,,,0.06,WeatherCatV1.02B3,2013-03-27 03:22:00,
2013-03-26 23:27:00,23.4,20.4,30.37,NNW,348,11.0,22.0,88,0.00,,,0.06,WeatherCatV1.02B3,2013-03-27 03:27:00,
2013-03-26 23:32:00,23.4,20.1,30.37,NNE,25,8.0,22.0,87,0.00,,,0.06,WeatherCatV1.02B3,2013-03-27 03:32:00,
2013-03-26 23:37:00,23.5,20.2,30.38,NNE,22,8.0,19.0,87,0.00,,,0.06,WeatherCatV1.02B3,2013-03-27 03:37:00,
2013-03-26 23:42:00,23.5,20.2,30.38,North,355,11.0,21.0,87,0.00,,,0.06,WeatherCatV1.02B3,2013-03-27 03:42:00,
2013-03-26 23:47:00,23.5,20.2,30.38,NE,34,21.0,21.0,87,0.00,,,0.06,WeatherCatV1.02B3,2013-03-27 03:47:00,
2013-03-26 23:52:00,23.6,20.3,30.38,NW,322,10.0,15.0,87,0.00,,,0.06,WeatherCatV1.02B3,2013-03-27 03:52:00,
2013-03-26 23:57:00,23.6,20.6,30.38,NNE,28,10.0,13.0,88,0.00,,,0.06,WeatherCatV1.02B3,2013-03-27 03:57:00,